Home > Weather > Bend > Past weeks

Flag for USA Past Weather in Bend, Oregon, USA — Yesterday and Last 2 Weeks

Now
69 °F

Clear.


Feels Like: 69 °F
Forecast: 58 / 93 °F
Wind: 8 mph from Northwest

Location: Roberts Field Airport

Current Time: Jul 28, 2016 at 1:38:11 AM

Latest Report: Jul 28, 2016 at 12:56 AM


Visibility: 10 mi

Pressure: 30.02 "Hg (26.41 "Hg at 1103m altitude)

Humidity: 38%

Dew Point: 42 °F

Location of BendLocation

Past Weather in Bend — Graph

°F

Bend Temperature Yesterday

Maximum temperature yesterday: 93 °F (at 4:56 PM)
Minimum temperature yesterday: 49 °F (at 5:56 AM)
Average temperature yesterday: 74 °F

High & Low Weather Summary for the Past Weeks

 TemperatureHumidityPressure
High94 °F (Jul 25, 4:56 PM)90% (Jul 18, 4:56 AM)30.22 "Hg (Jul 18, 4:56 AM)
Low41 °F (Jul 13, 5:56 AM)8% (Jul 27, 2:56 PM)29.80 "Hg (Jul 17, 4:56 PM)
Average68 °F43%30.03 "Hg
* Reported Jul 12 11:56 PM — Jul 27 11:56 PM, Bend, Weather by CustomWeather, © 2016

Note: Actual official high and low records may vary slightly from our data, if they occured in-between our weather recording intervals... More about our weather records

Advertising

Bend Weather History for the Previous 24 Hours

Scroll right to see more
 ConditionsComfort  
Time TempWeatherWind HumidityBarometerVisibility
11:56 PM
Wed, Jul 27
71 °FClear.3 mph34%30.03 "Hg10 mi
10:56 PM75 °FClear.8 mph27%30.02 "Hg10 mi
9:56 PM79 °FClear.12 mph26%30.01 "Hg10 mi
8:56 PM81 °FSunny.7 mph16%29.98 "Hg10 mi
7:56 PM88 °FSunny.9 mph11%29.97 "Hg10 mi
6:56 PM91 °FSunny.10 mph11%29.96 "Hg10 mi
5:56 PM92 °FSunny.13 mph10%29.97 "Hg10 mi
4:56 PM93 °FSunny.14 mph9%29.98 "Hg10 mi
3:56 PM92 °FSunny.13 mph9%29.99 "Hg10 mi
2:56 PM92 °FSunny.10 mph8%29.99 "Hg10 mi
1:56 PM89 °FSunny.9 mph11%30.01 "Hg10 mi
12:56 PM88 °FSunny.9 mph12%30.02 "Hg10 mi
11:56 AM83 °FSunny.12 mph18%30.04 "Hg10 mi
10:56 AM80 °FSunny.7 mph22%30.04 "Hg10 mi
9:56 AM75 °FSunny.3 mph30%30.04 "Hg10 mi
8:56 AM71 °FSunny.3 mph35%30.06 "Hg10 mi
7:56 AM63 °FSunny.No wind47%30.06 "Hg10 mi
6:56 AM56 °FSunny.5 mph53%30.05 "Hg10 mi
5:56 AM49 °FClear.5 mph66%30.04 "Hg10 mi
4:56 AM52 °FClear.3 mph64%30.02 "Hg10 mi
3:56 AM53 °FClear.7 mph59%30.02 "Hg10 mi
2:56 AM53 °FClear.3 mph56%30.02 "Hg10 mi
1:56 AM57 °FClear.5 mph49%30.02 "Hg10 mi
Weather by CustomWeather, © 2016

See weather overviewHow to use our weather pages